Location: Limerick
(52.6800°N, 8.6400°W)
Time: 13:20:34
(UTC+00:00)

ISS - All Passes

Search period start: 23 November 2017 00:00
Search period end: 03 December 2017 00:00
Orbit: 402 x 407 km, 51.6° (Epoch: 23 November)

Date Brightness Start Highest point End Pass type
(mag) Time Alt. Az. Time Alt. Az. Time Alt. Az.
23 Nov - 00:02:10 10° W 00:05:27 75° S 00:08:42 10° E night (unlit)
23 Nov - 01:38:37 10° W 01:41:48 48° SSW 01:44:58 10° ESE night (unlit)
23 Nov - 03:15:44 10° WSW 03:17:44 15° SW 03:19:43 10° S night (unlit)
23 Nov - 21:34:02 10° SW 21:36:58 31° SSE 21:39:54 10° E night (unlit)
23 Nov - 23:09:55 10° WSW 23:13:11 70° S 23:16:27 10° E night (unlit)
24 Nov - 00:46:20 10° W 00:49:35 61° SSW 00:52:48 10° ESE night (unlit)
24 Nov - 02:23:03 10° W 02:25:40 22° SSW 02:28:17 10° SSE night (unlit)
24 Nov - 20:42:15 10° SSW 20:44:51 22° SSE 20:47:25 10° E night (unlit)
24 Nov - 22:17:41 10° WSW 22:20:56 60° SSE 22:24:10 10° E night (unlit)
24 Nov - 23:54:02 10° W 23:57:19 71° S 00:00:35 10° ESE night (unlit)
25 Nov - 01:30:35 10° W 01:33:33 32° SSW 01:36:30 10° SE night (unlit)
25 Nov - 19:50:51 10° S 19:52:46 15° SE 19:54:40 10° ESE night (unlit)
25 Nov - 21:25:30 10° SW 21:28:41 47° SSE 21:31:51 10° E night (unlit)
25 Nov - 23:01:45 10° W 23:05:01 76° S 23:08:18 10° E night (unlit)
26 Nov - 00:38:12 10° W 00:41:21 44° SSW 00:44:29 10° SE night (unlit)
26 Nov - 02:15:36 10° WSW 02:17:13 13° SW 02:18:51 10° S night (unlit)
26 Nov - 20:33:27 10° SW 20:36:28 34° SSE 20:39:29 10° E night (unlit)
26 Nov - 22:09:27 10° W 22:12:43 73° S 22:15:59 10° E night (unlit)
26 Nov - 23:45:52 10° W 23:49:07 57° SSW 23:52:19 10° ESE night (unlit)
27 Nov - 01:22:41 10° W 01:25:09 20° SSW 01:27:36 10° SSE night (unlit)
27 Nov - 19:41:34 10° SSW 19:44:17 24° SSE 19:47:01 10° E visible
27 Nov - 21:17:10 10° WSW 21:20:25 64° S 21:23:40 10° E night (unlit)
27 Nov - 22:53:32 10° W 22:56:49 68° S 23:00:04 10° ESE night (unlit)
28 Nov - 00:30:08 10° W 00:33:00 28° SSW 00:35:52 10° SSE night (unlit)
28 Nov - 18:49:57 10° S 18:52:09 17° SE 18:54:21 10° ESE visible
28 Nov - 20:24:56 10° WSW 20:28:08 51° SSE 20:31:20 10° E visible
28 Nov - 22:01:13 10° W 22:04:30 75° S 22:07:46 10° E night (unlit)
28 Nov - 23:37:41 10° W 23:40:47 39° SSW 23:43:52 10° SE night (unlit)
29 Nov - 01:15:31 10° WSW 01:16:35 11° SW 01:17:40 10° SSW night (unlit)
29 Nov - 17:59:07 10° SSE 18:00:04 11° SE 18:01:00 10° ESE visible
29 Nov - 19:32:46 10° SW 19:35:52 38° SSE 19:38:57 10° E visible
29 Nov - 21:08:52 10° W 21:12:09 75° S 21:15:25 10° E night (unlit)
29 Nov - 22:45:18 10° W 22:48:31 52° SSW 22:51:43 10° ESE night (unlit)
30 Nov - 00:22:15 10° W 00:24:30 17° SW 00:26:44 10° S night (unlit)
30 Nov - 18:40:47 10° SSW 18:43:38 28° SSE 18:46:29 10° E visible
30 Nov - 20:16:32 10° WSW 20:19:48 68° S 20:23:04 10° E visible
30 Nov - 21:52:56 10° W 21:56:12 65° S 21:59:27 10° ESE night (unlit)
30 Nov - 23:29:34 10° W 23:32:20 25° SSW 23:35:05 10° SSE night (unlit)
01 Dec - 17:49:00 10° SSW 17:51:26 19° SE 17:53:52 10° E visible
01 Dec - 19:24:14 10° WSW 19:27:28 56° SSE 19:30:42 10° E visible
01 Dec - 21:00:33 10° W 21:03:50 73° S 21:07:07 10° E night (unlit)
01 Dec - 22:37:04 10° W 22:40:06 35° SSW 22:43:07 10° SE night (unlit)
02 Dec - 16:57:44 10° S 16:59:17 13° SE 17:00:51 10° ESE visible
02 Dec - 18:32:01 10° SW 18:35:09 43° SSE 18:38:17 10° E visible
02 Dec - 20:08:10 10° W 20:11:28 75° S 20:14:45 10° E visible
02 Dec - 21:44:37 10° W 21:47:48 48° SSW 21:50:59 10° ESE night (unlit)
02 Dec - 23:21:46 10° WSW 23:23:43 15° SW 23:25:42 10° S night (unlit)
